TimeCDT,TemperatureF,Dew PointF,Humidity,Sea Level PressureIn,VisibilityMPH,Wind Direction,Wind SpeedMPH,Gust SpeedMPH,PrecipitationIn,Events,Conditions,WindDirDegrees,DateUTC
12:13 AM,37.4,33.8,87,29.93,10.0,NW,3.5,-,N/A,,Clear,310,2012-10-15 05:13:00
12:54 AM,39.2,35.6,87,29.92,10.0,North,3.5,-,N/A,,Clear,350,2012-10-15 05:54:00
1:13 AM,39.2,35.6,87,29.92,10.0,NNW,3.5,-,N/A,,Clear,330,2012-10-15 06:13:00
1:33 AM,37.4,33.8,87,29.93,10.0,NW,4.6,-,N/A,,Clear,320,2012-10-15 06:33:00
1:54 AM,37.4,35.6,93,29.93,10.0,NNW,3.5,-,N/A,,Clear,330,2012-10-15 06:54:00
2:13 AM,37.4,35.6,93,29.93,10.0,Calm,Calm,-,N/A,,Clear,0,2012-10-15 07:13:00
2:54 AM,35.6,33.8,93,29.94,10.0,Calm,Calm,-,N/A,,Clear,0,2012-10-15 07:54:00
3:13 AM,37.4,35.6,93,29.94,10.0,Calm,Calm,-,N/A,,Clear,0,2012-10-15 08:13:00
3:33 AM,33.8,32.0,93,29.93,7.0,Calm,Calm,-,N/A,,Clear,0,2012-10-15 08:33:00
3:54 AM,35.6,35.6,100,29.91,10.0,ENE,3.5,-,N/A,,Clear,70,2012-10-15 08:54:00
4:13 AM,33.8,32.0,93,29.91,4.0,Calm,Calm,-,N/A,,Clear,0,2012-10-15 09:13:00
4:54 AM,33.8,33.8,100,29.92,4.0,Calm,Calm,-,N/A,,Clear,0,2012-10-15 09:54:00
5:13 AM,33.8,33.8,100,29.91,5.0,Calm,Calm,-,N/A,,Clear,0,2012-10-15 10:13:00
5:33 AM,32.0,32.0,100,29.92,4.0,SW,5.8,-,N/A,,Clear,230,2012-10-15 10:33:00
5:54 AM,33.8,33.8,100,29.91,7.0,Calm,Calm,-,N/A,,Clear,0,2012-10-15 10:54:00
6:13 AM,33.8,33.8,100,29.92,3.0,SSW,3.5,-,N/A,,Clear,210,2012-10-15 11:13:00
6:33 AM,30.2,30.2,100,29.92,0.5,SW,5.8,-,N/A,Fog,Light Freezing Fog,220,2012-10-15 11:33:00
6:54 AM,30.2,30.2,100,29.92,3.0,WSW,6.9,-,N/A,,Clear,240,2012-10-15 11:54:00
7:13 AM,30.2,30.2,100,29.93,0.8,WSW,8.1,-,N/A,,Mostly Cloudy,250,2012-10-15 12:13:00
7:33 AM,33.8,33.8,100,29.93,7.0,WSW,3.5,-,N/A,,Scattered Clouds,250,2012-10-15 12:33:00
7:54 AM,32.0,32.0,100,29.93,3.0,Calm,Calm,-,N/A,,Clear,0,2012-10-15 12:54:00
8:13 AM,33.8,33.8,100,29.92,1.8,Calm,Calm,-,N/A,,Clear,0,2012-10-15 13:13:00
8:33 AM,32.0,32.0,100,29.93,3.0,Calm,Calm,-,N/A,,Clear,0,2012-10-15 13:33:00
8:54 AM,35.6,33.8,93,29.93,5.0,Calm,Calm,-,N/A,,Clear,0,2012-10-15 13:54:00
9:12 AM,37.4,37.4,100,29.93,7.0,Calm,Calm,-,N/A,,Clear,0,2012-10-15 14:12:00
9:34 AM,42.8,37.4,81,29.93,10.0,South,4.6,-,N/A,,Clear,180,2012-10-15 14:34:00
9:53 AM,46.4,37.4,71,29.93,10.0,South,8.1,-,N/A,,Clear,190,2012-10-15 14:53:00
10:13 AM,48.2,37.4,66,29.93,10.0,SSW,8.1,-,N/A,,Clear,210,2012-10-15 15:13:00
10:34 AM,48.2,37.4,66,29.93,10.0,SSW,8.1,-,N/A,,Clear,200,2012-10-15 15:34:00
10:53 AM,51.8,37.4,58,29.93,10.0,SSW,6.9,-,N/A,,Clear,210,2012-10-15 15:53:00
11:13 AM,53.6,37.4,54,29.93,10.0,SSW,8.1,-,N/A,,Clear,200,2012-10-15 16:13:00
11:53 AM,53.6,37.4,54,29.92,10.0,South,9.2,-,N/A,,Clear,190,2012-10-15 16:53:00
12:13 PM,55.4,37.4,51,29.91,10.0,South,9.2,-,N/A,,Clear,170,2012-10-15 17:13:00
12:34 PM,55.4,37.4,51,29.90,10.0,South,9.2,-,N/A,,Clear,170,2012-10-15 17:34:00
1:13 PM,60.8,37.4,42,29.87,10.0,SE,10.4,-,N/A,,Clear,140,2012-10-15 18:13:00
1:33 PM,60.8,37.4,42,29.86,10.0,South,10.4,-,N/A,,Scattered Clouds,170,2012-10-15 18:33:00
1:53 PM,60.8,35.6,39,29.85,10.0,SSE,9.2,-,N/A,,Scattered Clouds,160,2012-10-15 18:53:00
2:33 PM,59.0,35.6,42,29.83,10.0,SSE,11.5,-,N/A,,Mostly Cloudy,160,2012-10-15 19:33:00
2:53 PM,59.0,37.4,45,29.82,10.0,SSE,12.7,-,N/A,,Overcast,160,2012-10-15 19:53:00
3:14 PM,59.0,37.4,45,29.82,10.0,South,15.0,-,N/A,,Mostly Cloudy,170,2012-10-15 20:14:00
3:33 PM,59.0,37.4,45,29.81,10.0,SSE,11.5,-,N/A,,Mostly Cloudy,160,2012-10-15 20:33:00
3:53 PM,60.8,37.4,42,29.81,10.0,SSE,11.5,-,N/A,,Scattered Clouds,150,2012-10-15 20:53:00
4:14 PM,60.8,37.4,42,29.79,10.0,SSE,13.8,17.3,N/A,,Clear,150,2012-10-15 21:14:00
4:33 PM,60.8,37.4,42,29.79,10.0,SSE,12.7,-,N/A,,Clear,160,2012-10-15 21:33:00
4:53 PM,60.8,35.6,39,29.78,10.0,SSE,11.5,18.4,N/A,,Clear,150,2012-10-15 21:53:00
5:14 PM,60.8,35.6,39,29.77,10.0,SE,10.4,-,N/A,,Clear,140,2012-10-15 22:14:00
5:33 PM,60.8,37.4,42,29.76,10.0,SE,11.5,-,N/A,,Clear,140,2012-10-15 22:33:00
5:53 PM,60.8,37.4,42,29.75,10.0,SE,11.5,-,N/A,,Clear,140,2012-10-15 22:53:00
6:14 PM,59.0,37.4,45,29.74,10.0,SE,13.8,-,N/A,,Clear,140,2012-10-15 23:14:00
6:33 PM,59.0,37.4,45,29.74,10.0,SE,13.8,-,N/A,,Clear,140,2012-10-15 23:33:00
6:53 PM,57.2,37.4,48,29.73,7.0,SE,15.0,-,N/A,,Clear,140,2012-10-15 23:53:00
7:14 PM,57.2,37.4,48,29.73,10.0,SE,13.8,-,N/A,,Clear,140,2012-10-16 00:14:00
7:33 PM,57.2,37.4,48,29.72,10.0,SE,13.8,-,N/A,,Clear,140,2012-10-16 00:33:00
7:53 PM,55.4,37.4,51,29.72,7.0,SE,12.7,-,N/A,,Clear,140,2012-10-16 00:53:00
8:14 PM,55.4,37.4,51,29.71,10.0,SSE,12.7,-,N/A,,Clear,150,2012-10-16 01:14:00
8:33 PM,55.4,37.4,51,29.71,10.0,SE,11.5,-,N/A,,Clear,140,2012-10-16 01:33:00
8:53 PM,55.4,37.4,51,29.70,10.0,SE,12.7,-,N/A,,Clear,140,2012-10-16 01:53:00
9:14 PM,55.4,37.4,51,29.69,10.0,SSE,12.7,-,N/A,,Clear,150,2012-10-16 02:14:00
9:33 PM,57.2,37.4,48,29.69,10.0,SSE,13.8,-,N/A,,Clear,150,2012-10-16 02:33:00
9:53 PM,57.2,37.4,48,29.69,10.0,SSE,11.5,-,N/A,,Clear,150,2012-10-16 02:53:00
10:13 PM,57.2,37.4,48,29.68,10.0,SSE,11.5,-,N/A,,Clear,150,2012-10-16 03:13:00
10:33 PM,57.2,37.4,48,29.67,10.0,SSE,12.7,18.4,N/A,,Clear,160,2012-10-16 03:33:00
10:53 PM,57.2,37.4,48,29.67,10.0,SSE,12.7,-,N/A,,Mostly Cloudy,160,2012-10-16 03:53:00
11:13 PM,59.0,39.2,48,29.66,10.0,SSE,13.8,23.0,N/A,,Mostly Cloudy,160,2012-10-16 04:13:00
11:33 PM,59.0,39.2,48,29.65,10.0,South,13.8,19.6,N/A,,Mostly Cloudy,170,2012-10-16 04:33:00
11:53 PM,59.0,39.2,48,29.65,10.0,SSE,12.7,18.4,N/A,,Scattered Clouds,160,2012-10-16 04:53:00